KL7GG Weather Reports


Display with metric or nautical units.
time (UTC)temp
F
wind
direction
speed
MPH
gust
MPH
rain 1hr
in
rain 24hr
in
rain mn
in
humidity
%
barometer
mb
20260901103500 37 0 0.0 0.0 0.00 0.39 0.00 91 1004.7
20260901101955 37 0 0.0 0.0 0.00 0.39 0.00 91 1004.7
20260901100452 37 0 0.0 0.0 0.00 0.39 0.00 91 1004.7
20260901094947 38 0 0.0 0.0 0.00 0.39 0.00 90 1004.7
20260901093444 39 0 0.0 0.0 0.00 0.39 0.00 91 1004.6
20260901091939 39 0 0.0 0.0 0.00 0.39 0.00 90 1004.2
20260901084930 40 0 0.0 0.0 0.00 0.39 0.00 89 1003.7
20260901083425 41 0 0.0 0.0 0.00 0.39 0.40 89 1003.6
20260901081922 41 0 0.0 0.0 0.00 0.39 0.40 88 1003.5
20260901074911 43 0 0.0 0.0 0.00 0.39 0.40 86 1003.5
20260901073407 44 0 0.0 0.0 0.00 0.39 0.40 83 1003.2
20260901071903 45 0 0.0 4.0 0.00 0.39 0.40 81 1003.1
20260901070400 46 0 0.0 11.0 0.00 0.39 0.40 79 1003.3
20260901064855 46 4 3.0 10.0 0.00 0.39 0.40 79 1003.0
20260901063350 46 0 0.0 7.0 0.00 0.39 0.40 79 1002.6
20260901061846 45 356 3.0 10.0 0.00 0.39 0.40 81 1002.5
20260901060341 45 311 1.0 6.0 0.00 0.39 0.40 83 1002.1
20260901054837 46 0 0.0 0.0 0.00 0.39 0.40 81 1002.0
20260901053334 47 0 0.0 0.0 0.00 0.39 0.40 79 1001.9
20260901050324 49 341 1.0 7.0 0.00 0.39 0.40 74 1001.5
20260901044820 49 360 1.0 7.0 0.00 0.39 0.40 77 1001.4
20260901043316 50 0 0.0 6.0 0.00 0.39 0.40 75 1001.3
20260901041809 51 0 0.0 4.0 0.00 0.39 0.40 73 1001.3
20260901040306 52 300 1.0 10.0 0.00 0.39 0.40 66 1001.3
20260901034801 53 0 0.0 6.0 0.00 0.39 0.40 66 1001.1
20260901033258 54 289 1.0 7.0 0.00 0.39 0.40 65 1000.9
20260901031753 54 279 3.0 6.0 0.00 0.39 0.40 62 1000.8
20260901030251 55 303 4.0 9.0 0.00 0.39 0.40 63 1000.6
20260901024746 56 335 4.0 11.0 0.00 0.39 0.40 63 1000.4
20260901023242 55 306 1.0 9.0 0.00 0.39 0.40 64 1000.4
20260901021738 55 297 5.0 11.0 0.00 0.39 0.40 62 1000.2
20260901020235 55 334 2.0 10.0 0.00 0.39 0.40 60 1000.2
20260901014728 55 282 4.0 13.0 0.00 0.39 0.40 63 999.9
20260901011718 55 295 3.0 11.0 0.00 0.39 0.40 66 999.9
20260901010214 54 275 8.0 14.0 0.00 0.39 0.40 69 999.7
20260901004708 53 251 1.0 12.0 0.00 0.39 0.40 73 999.7
20260901003203 51 295 5.0 11.0 0.00 0.39 0.40 80 999.8
20260901001700 49 0 0.0 7.0 0.00 0.39 0.40 78 999.8
20260901000156 48 0 0.0 1.0 0.00 0.39 0.40 82 1000.0
20260831234652 48 0 0.0 0.0 0.00 0.39 0.40 83 999.9
20260831233148 46 0 0.0 1.0 0.00 0.39 0.40 85 1000.0
20260831231644 46 0 0.0 0.0 0.00 0.39 0.40 90 1000.0
20260831230139 45 0 0.0 0.0 0.00 0.39 0.40 91 1000.0
20260831224636 45 0 0.0 0.0 0.00 0.39 0.40 92 1000.1
20260831223131 44 0 0.0 0.0 0.00 0.39 0.40 93 1000.1
20260831221629 44 291 2.0 5.0 0.00 0.39 0.40 94 1000.2
20260831220124 43 312 1.0 11.0 0.00 0.39 0.40 94 1000.3
20260831214619 44 310 8.0 12.0 0.00 0.39 0.40 96 1000.2
20260831213116 43 296 3.0 13.0 0.00 0.39 0.40 95 1000.3
20260831211612 43 299 2.0 8.0 0.00 0.39 0.40 95 1000.3
20260831210105 42 0 0.0 6.0 0.00 0.39 0.40 95 1000.2
20260831204602 42 305 3.0 9.0 0.00 0.39 0.40 95 1000.2
20260831203057 42 0 0.0 10.0 0.00 0.39 0.40 95 1000.2
20260831201554 42 293 5.0 12.0 0.00 0.39 0.40 95 1000.0
20260831200048 42 286 1.0 9.0 0.00 0.39 0.40 95 1000.1
20260831194543 41 312 2.0 7.0 0.00 0.39 0.40 95 1000.1
20260831193040 42 310 1.0 9.0 0.00 0.39 0.40 95 1000.0
20260831191535 41 305 2.0 6.0 0.00 0.39 0.40 95 1000.2
20260831190030 41 306 4.0 13.0 0.00 0.39 0.40 95 1000.0
20260831184525 41 0 0.0 4.0 0.00 0.39 0.40 96 999.9
20260831183022 41 5 1.0 4.0 0.00 0.39 0.40 95 999.9
20260831181517 41 0 0.0 0.0 0.00 0.39 0.40 95 999.9
20260831180014 40 0 0.0 0.0 0.00 0.39 0.40 95 1000.0
20260831174509 40 0 0.0 0.0 0.00 0.39 0.40 95 1000.1
20260831173006 39 0 0.0 0.0 0.00 0.39 0.40 95 1000.2
20260831171501 39 0 0.0 0.0 0.00 0.39 0.40 95 1000.4
20260831165958 38 0 0.0 0.0 0.00 0.39 0.40 95 1000.3
20260831164454 38 0 0.0 0.0 0.01 0.39 0.40 94 1000.3
20260831162950 38 0 0.0 2.0 0.03 0.39 0.40 94 1000.4
20260831161446 37 0 0.0 4.0 0.06 0.39 0.40 94 1000.5
20260831155941 37 0 0.0 0.0 0.09 0.39 0.40 94 1000.9
20260831154436 37 0 0.0 3.0 0.10 0.38 0.39 93 1001.1
20260831151426 39 0 0.0 0.0 0.12 0.33 0.34 93 1001.4
20260831145921 39 0 0.0 0.0 0.12 0.30 0.30 93 1001.3
20260831142911 40 291 6.0 16.0 0.16 0.24 0.24 92 1001.3
20260831141408 40 305 8.0 13.0 0.17 0.21 0.21 92 1000.8
20260831135904 40 313 8.0 21.0 0.16 0.18 0.18 92 1000.5
20260831134357 41 13 9.0 24.0 0.15 0.15 0.15 93 999.4
20260831132854 44 0 0.0 0.0 0.08 0.08 0.08 95 999.1
20260831131349 44 0 0.0 0.0 0.04 0.04 0.04 95 999.4
20260831125845 43 0 0.0 0.0 0.02 0.02 0.02 95 999.7
20260831124341 43 0 0.0 2.0 0.00 0.00 0.00 94 999.6
20260831122838 43 0 0.0 0.0 0.00 0.00 0.00 94 999.7
20260831121334 42 0 0.0 0.0 0.00 0.00 0.00 94 999.9
20260831115827 42 0 0.0 0.0 0.00 0.00 0.00 94 1000.3
20260831114324 42 0 0.0 0.0 0.00 0.00 0.00 94 1000.4
20260831112820 42 0 0.0 0.0 0.00 0.00 0.00 94 1000.2
20260831111315 42 0 0.0 0.0 0.00 0.00 0.00 94 1000.5
20260831105811 43 0 0.0 0.0 0.00 0.00 0.00 93 1000.7
20260831104307 44 0 0.0 0.0 0.00 0.00 0.00 94 1001.1